sat.trackr.live / text

‹ back to catalog

STARLINK-2574

NORAD 48395 · 2021-038AU

PAYLOAD ACTIVE UNKNOWN

§ Identity

Operator
Country
US
Launch date
2021-05-04
Launch site
AFETR
Launch vehicle
Mass (kg)
RCS (m²)

Purposes: comms

External: N2YO · Heavens-Above · Gunter

§ Orbital elements

Epoch: 2026-05-24T20:08:23.404992Z

Period
94.01 min
Inclination
53.1603°
Eccentricity
0.0001061
Mean motion
15.31714520 rev/d
Perigee alt
470.0 km
Apogee alt
471.4 km
Semi-major
6,848.8 km
B*
5.1928e-5
RAAN
340.7373°
Arg perigee
82.6129°
Mean anomaly
277.4993°
Rev number
28,029

§ Raw data

STARLINK-25741 48395U 21038AU  26144.83915978  .00001247  00000+0  51928-4 0  99922 48395  53.1603 340.7373 0001061  82.6129 277.4993 15.31714520280293

JSON: /api/v1/satellites/48395 · /tle

For live sub-satellite position, see the globe view (requires WebGL).

§ Visibility from observer

Set your observer location to see the next 7 days of passes ≥ 10°. The values pass through the URL so the page stays shareable.

No JS? Fill the form by hand. The geolocation button needs JavaScript.